GEO7 UGTB-UGTB

Flight info

Callsign GEO7
Flight time 0h 6m
Altitude 1100
Route DC
Aircraft C152/L-SDE1E2E3FGHIJ2J3J4J5M1RWXYZ/L

Departure

Time 2026-04-22 10:05
Airport Tbilisi International Airport (UGTB)

Arrival

Time 2026-04-22 10:12
Airport Tbilisi International Airport (UGTB)
Time Latitude Longitude Altitude Speed Heading
2026-04-22 09:54 41.67429 44.95518 1522 ft 0 kts 313°
2026-04-22 10:03 41.67436 44.95519 1522 ft 3 kts 345°
2026-04-22 10:04 41.67383 44.95401 1522 ft 26 kts 239°
2026-04-22 10:04 41.67228 44.95214 1522 ft 35 kts 226°
2026-04-22 10:04 41.67143 44.95134 1522 ft 0 kts 236°
2026-04-22 10:04 41.67307 44.94944 1528 ft 63 kts 313°
2026-04-22 10:05 41.67671 44.94432 1618 ft 85 kts 304°
2026-04-22 10:05 41.67955 44.93685 1874 ft 91 kts 281°
2026-04-22 10:05 41.68041 44.92909 2350 ft 78 kts 270°
2026-04-22 10:05 41.67816 44.92166 2616 ft 99 kts 244°
2026-04-22 10:06 41.67815 44.91239 2801 ft 99 kts 262°
2026-04-22 10:06 41.68104 44.90310 2031 ft 126 kts 276°
2026-04-22 10:06 41.68160 44.89288 2602 ft 88 kts 273°
2026-04-22 10:06 41.68057 44.88402 2764 ft 112 kts 260°
2026-04-22 10:07 41.68090 44.87438 3239 ft 85 kts 297°
2026-04-22 10:07 41.68388 44.86450 2856 ft 130 kts 286°
2026-04-22 10:07 41.68535 44.85361 3082 ft 104 kts 288°
2026-04-22 10:07 41.68695 44.84349 2812 ft 132 kts 282°
2026-04-22 10:08 41.68837 44.83177 2880 ft 119 kts 277°
2026-04-22 10:08 41.68841 44.81989 1896 ft 152 kts 272°
2026-04-22 10:08 41.69242 44.80851 1688 ft 136 kts 348°
2026-04-22 10:08 41.70117 44.80562 1521 ft 128 kts 295°
2026-04-22 10:09 41.70447 44.79486 1473 ft 122 kts 317°
2026-04-22 10:09 41.71122 44.78851 1478 ft 115 kts 309°
2026-04-22 10:09 41.71221 44.77835 1513 ft 116 kts 267°
2026-04-22 10:09 41.71362 44.76780 1540 ft 115 kts 279°
2026-04-22 10:10 41.71633 44.75827 1663 ft 109 kts 267°
2026-04-22 10:10 41.71555 44.74791 1672 ft 116 kts 260°
2026-04-22 10:10 41.71957 44.74298 1686 ft 109 kts 269°
2026-04-22 10:10 41.71796 44.73265 1728 ft 112 kts 266°
2026-04-22 10:11 41.71740 44.72301 1837 ft 104 kts 271°
2026-04-22 10:11 41.71985 44.71808 1963 ft 72 kts 339°
2026-04-22 10:11 41.71869 44.71686 1866 ft 95 kts 69°
2026-04-22 10:11 41.72001 44.72467 1851 ft 72 kts 84°
2026-04-22 10:12 41.71970 44.72730 1731 ft 0 kts 141°